Content
SEND FEEDBACK

Daily
Averages
Monthly
Summary
United States of America

YIGO, GUAM


Home > North America > United States > Guam
Elevation: 162 meters     Latitude: 13 32N     Longitude: 144 53E

WEATHER
 
SELECT A DAY
Number of Records: 209,106;   Date Range: 1/1/95 - 8/12/14
 
SHARE

PRINT THIS DATA

[ ← Previous Day ]
WEATHER ALMANAC - 15 OCTOBER, 2013
[ Next Day → ]
[ °F ]   °C
Weather ElementAverageHighLow
Temperature27.1 °C30 °C (11:54 am)24 °C (5:07 pm)
Dewpoint25.2 °C26.7 °C (7:54 am)23 °C (5:34 pm)
Humidity89.2 %100 % (5:07 pm)77 % (11:54 am)
Barometer1010.5 hPa1012.9 hPa (9:02 am)1008.8 hPa (11:54 pm)
Wind Speed14.5 km/h27.8 km/h (11:54 pm)
Wind Gust37 km/h (11:54 pm)
Weather ElementAverage
Visibility13 km
Wind DirectionWSW (248.3 °)

Weather ElementTotal
Precipitation78.23 mm
Cooling Degree Days8.7 (Base 18.3)
Growing Degree Days17 (Base 10)
Averaged from 40 records on 15 October, 2013
WEATHER CONDITIONS BREAKOUT
WIND DIRECTION BREAKOUT
WEATHER BY HOUR - 15 OCTOBER, 2013
[ °F ]   °C
Local TimeTemperatureDewpointHumidityBarometerVisibilityWind DirectionWind SpeedGust SpeedPrecipitationEventsConditions
1:54 AM25.6 °C24.4 °C93 %1011.2 hPa16.1 kmCalmClear
2:54 AM26.1 °C24.4 °C90 %1010.5 hPa16.1 kmCalmClear
3:54 AM26.1 °C24.4 °C90 %1010.5 hPa16.1 kmCalmClear
4:54 AM25.6 °C24.4 °C93 %1010.5 hPa16.1 kmCalmClear
5:54 AM25 °C24.4 °C96 %1010.5 hPa16.1 kmCalmClear
6:54 AM26.7 °C25.6 °C94 %1011.2 hPa11.3 kmNorth (10°)5.6 km/hClear
7:54 AM28.3 °C26.7 °C91 %1011.5 hPa9.7 kmNW (320°)7.4 km/hClear
8:54 AM28.9 °C25.6 °C82 %1012.2 hPa16.1 kmNW (320°)14.8 km/hScattered Clouds
9:02 AM29 °C26 °C84 %1012.9 hPa16.1 kmNW (320°)11.1 km/hMostly Cloudy
9:20 AM29 °C26 °C84 %1012.9 hPa16.1 kmNW (310°)14.8 km/hScattered Clouds
9:54 AM28.9 °C25 °C79 %1011.9 hPa16.1 kmNW (310°)16.7 km/hScattered Clouds
10:54 AM28.9 °C25 °C79 %1011.5 hPa16.1 kmNW (310°)13 km/hScattered Clouds
11:54 AM30 °C25.6 °C77 %1010.5 hPa16.1 kmWNW (290°)14.8 km/hScattered Clouds
12:54 PM29.4 °C25 °C77 %1009.5 hPa16.1 kmWNW (300°)18.5 km/hScattered Clouds
1:54 PM29.4 °C25.6 °C80 %1009.1 hPa16.1 kmWNW (290°)20.4 km/hScattered Clouds
2:54 PM30 °C25.6 °C77 %1009.1 hPa16.1 kmNW (310°)20.4 km/hScattered Clouds
3:49 PM28 °C26 °C89 %1010.2 hPa16.1 kmNW (310°)18.5 km/h0 mmRainLight Rain
3:54 PM28.3 °C25.6 °C85 %1009.5 hPa11.3 kmNW (320°)16.7 km/h0 mmRainLight Rain
4:24 PM27 °C25 °C89 %1010.5 hPa2.9 kmNorth (350°)24.1 km/h33.3 km/h0.51 mmRainRain
4:32 PM26 °C25 °C94 %1010.5 hPa4.8 kmNorth (10°)14.8 km/h3.05 mmRainRain
4:40 PM26 °C25 °C94 %1010.5 hPa8 kmNorth (10°)11.1 km/h3.56 mmRainRain
4:46 PM26 °C25 °C94 %1010.5 hPa8 kmNNE (20°)16.7 km/h4.32 mmRainRain
4:54 PM25.6 °C25 °C96 %1010.2 hPa3.2 kmNorth (360°)20.4 km/h27.8 km/h7.37 mmRainHeavy Rain
4:56 PM25 °C24 °C94 %1010.8 hPa1.3 kmNorth (360°)16.7 km/h27.8 km/h1.27 mmRainHeavy Rain
4:58 PM25 °C24 °C94 %1010.8 hPa4.8 kmNorth (360°)18.5 km/h27.8 km/h3.56 mmRainHeavy Rain
5:07 PM24 °C24 °C100 %1010.8 hPa2.4 kmNNW (340°)11.1 km/h10.67 mmRainHeavy Rain
5:15 PM24 °C24 °C100 %1010.5 hPa4.8 kmNNW (330°)14.8 km/h13.46 mmRainHeavy Rain
5:34 PM26 °C23 °C83 %1010.5 hPa16.1 kmNNW (330°)5.6 km/h15.24 mmMostly Cloudy
5:54 PM25.6 °C24.4 °C93 %1010.2 hPa16.1 kmNNW (330°)13 km/h15.24 mmScattered Clouds
6:54 PM26.7 °C25.6 °C94 %1009.1 hPa16.1 kmNW (310°)14.8 km/hPartly Cloudy
7:10 PM26 °C26 °C100 %1009.8 hPa16.1 kmNW (310°)14.8 km/hScattered Clouds
7:54 PM26.7 °C25 °C90 %1009.1 hPa16.1 kmWNW (300°)14.8 km/hClear
8:54 PM27.2 °C25.6 °C91 %1009.8 hPa16.1 kmNW (310°)16.7 km/hClear
9:54 PM27.2 °C26.1 °C94 %1009.8 hPa16.1 kmNW (320°)18.5 km/hMostly Cloudy
10:13 PM27 °C26 °C94 %1010.5 hPa16.1 kmWNW (300°)20.4 km/hMostly Cloudy
10:25 PM28 °C26 °C89 %1010.2 hPa16.1 kmNW (310°)22.2 km/hMostly Cloudy
10:54 PM27.8 °C25.6 °C88 %1009.5 hPa16.1 kmNW (310°)20.4 km/hScattered Clouds
11:05 PM28 °C26 °C89 %1010.2 hPa16.1 kmNW (310°)22.2 km/hMostly Cloudy
11:20 PM28 °C25 °C84 %1010.2 hPa16.1 kmNW (320°)25.9 km/hScattered Clouds
11:54 PM27.8 °C25 °C85 %1008.8 hPa16.1 kmNW (310°)27.8 km/h37 km/hScattered Clouds
Hourly data recorded from PGUM, located 0 kilometers away from Yigo, Guam







STORIES FROM OUR PARTNERS